Tiempo cada hora Gola Gokarannath

Hoy, 22 Junio, Martes

Tiempo Temperatura Precipitaciones Viento Presión Humedad
00:00 +32°C° 0 mm 2 mps 736 mmHg 62%
01:00 +32°C° 0 mm 1 mps 736 mmHg 64%
02:00 +31°C° 0 mm 1 mps 736 mmHg 65%
03:00 +31°C° 0 mm 1 mps 736 mmHg 66%
04:00 +31°C° 0 mm 1 mps 736 mmHg 67%
05:00 +31°C° 0 mm 1 mps 736 mmHg 68%
06:00 +32°C° 0 mm 1 mps 737 mmHg 64%
07:00 +33°C° 0 mm 1 mps 737 mmHg 59%
08:00 +34°C° 0 mm 1 mps 738 mmHg 54%
09:00 +36°C° 0 mm 1 mps 738 mmHg 50%
10:00 +38°C° 0 mm 2 mps 737 mmHg 45%
11:00 +39°C° 0 mm 2 mps 737 mmHg 41%
12:00 +39°C° 0 mm 2 mps 737 mmHg 40%
13:00 +39°C° 0 mm 2 mps 736 mmHg 39%
14:00 +40°C° 0 mm 2 mps 735 mmHg 38%
15:00 +40°C° 0 mm 2 mps 735 mmHg 38%
16:00 +40°C° 0 mm 2 mps 735 mmHg 37%
17:00 +40°C° 0 mm 2 mps 735 mmHg 37%
18:00 +39°C° 0 mm 2 mps 735 mmHg 42%
19:00 +37°C° 0 mm 3 mps 735 mmHg 47%
20:00 +36°C° 0 mm 3 mps 736 mmHg 52%
21:00 +35°C° 0 mm 3 mps 736 mmHg 55%
22:00 +35°C° 0 mm 3 mps 736 mmHg 58%
23:00 +34°C° 0 mm 4 mps 736 mmHg 62%

Mañana, 23 Junio, Miércoles

Tiempo Temperatura Precipitaciones Viento Presión Humedad
00:00 +34°C° 0 mm 3 mps 736 mmHg 64%
01:00 +33°C° 0 mm 3 mps 736 mmHg 67%
02:00 +33°C° 0 mm 3 mps 736 mmHg 70%
03:00 +31°C° 0 mm 3 mps 736 mmHg 72%
04:00 +31°C° 0 mm 2 mps 737 mmHg 74%
05:00 +31°C° 0 mm 2 mps 737 mmHg 76%
06:00 +33°C° 0 mm 3 mps 737 mmHg 70%
07:00 +35°C° 0 mm 3 mps 738 mmHg 63%
08:00 +36°C° 0 mm 4 mps 738 mmHg 57%
09:00 +37°C° 0 mm 3 mps 738 mmHg 52%
10:00 +38°C° 0 mm 3 mps 738 mmHg 48%
11:00 +40°C° 0 mm 3 mps 738 mmHg 43%
12:00 +41°C° 0 mm 2 mps 737 mmHg 39%
13:00 +42°C° 0 mm 1 mps 736 mmHg 35%
14:00 +43°C° 0 mm 1 mps 736 mmHg 31%
15:00 +43°C° 0 mm 1 mps 735 mmHg 30%
16:00 +43°C° 0 mm 1 mps 735 mmHg 29%
17:00 +43°C° 0 mm 2 mps 735 mmHg 29%
18:00 +42°C° 0 mm 3 mps 735 mmHg 35%
19:00 +40°C° 0 mm 4 mps 735 mmHg 41%
20:00 +37°C° 0 mm 4 mps 735 mmHg 48%
21:00 +37°C° 0 mm 4 mps 736 mmHg 51%
22:00 +36°C° 0 mm 4 mps 736 mmHg 53%
23:00 +36°C° 0 mm 4 mps 736 mmHg 56%

Pasado mañana, 24 Junio, Jueves

Tiempo Temperatura Precipitaciones Viento Presión Humedad
00:00 +35°C° 0 mm 3 mps 736 mmHg 58%
01:00 +35°C° 0 mm 3 mps 736 mmHg 61%
02:00 +34°C° 0 mm 2 mps 736 mmHg 63%
03:00 +34°C° 0 mm 2 mps 736 mmHg 65%
04:00 +32°C° 0 mm 2 mps 736 mmHg 68%
05:00 +32°C° 0 mm 2 mps 736 mmHg 70%
06:00 +34°C° 0 mm 2 mps 736 mmHg 65%
07:00 +36°C° 0 mm 3 mps 736 mmHg 60%
08:00 +37°C° 0 mm 3 mps 736 mmHg 55%
09:00 +38°C° 0 mm 3 mps 736 mmHg 50%
10:00 +40°C° 0 mm 2 mps 736 mmHg 44%
11:00 +41°C° 0 mm 2 mps 736 mmHg 39%
12:00 +42°C° 0 mm 1 mps 735 mmHg 35%
13:00 +43°C° 0 mm 1 mps 734 mmHg 31%
14:00 +44°C° 0 mm 1 mps 734 mmHg 27%
15:00 +44°C° 0 mm 1 mps 733 mmHg 26%
16:00 +46°C° 0 mm 2 mps 733 mmHg 24%
17:00 +46°C° 0 mm 3 mps 732 mmHg 22%
18:00 +44°C° 0 mm 3 mps 733 mmHg 29%
19:00 +42°C° 0 mm 3 mps 733 mmHg 35%
20:00 +39°C° 0 mm 3 mps 734 mmHg 41%
21:00 +38°C° 0 mm 3 mps 734 mmHg 44%
22:00 +38°C° 0 mm 4 mps 734 mmHg 47%
23:00 +37°C° 0 mm 5 mps 734 mmHg 50%

25 Junio, Viernes

Tiempo Temperatura Precipitaciones Viento Presión Humedad
00:00 +36°C° 0 mm 4 mps 734 mmHg 52%
01:00 +36°C° 0 mm 4 mps 734 mmHg 54%
02:00 +35°C° 0 mm 3 mps 733 mmHg 56%
03:00 +35°C° 0 mm 3 mps 733 mmHg 60%
04:00 +34°C° 0 mm 3 mps 734 mmHg 63%
05:00 +33°C° 0 mm 3 mps 734 mmHg 67%
06:00 +35°C° 0 mm 3 mps 734 mmHg 63%
07:00 +36°C° 0 mm 3 mps 734 mmHg 59%
08:00 +37°C° 0 mm 3 mps 735 mmHg 56%
09:00 +39°C° 0 mm 2 mps 734 mmHg 48%
10:00 +40°C° 0 mm 2 mps 734 mmHg 41%
11:00 +42°C° 0 mm 2 mps 734 mmHg 34%
12:00 +43°C° 0 mm 2 mps 734 mmHg 31%
13:00 +45°C° 0 mm 3 mps 733 mmHg 28%
14:00 +46°C° 0 mm 3 mps 733 mmHg 25%
15:00 +46°C° 0 mm 3 mps 732 mmHg 24%
16:00 +46°C° 0 mm 3 mps 732 mmHg 24%
17:00 +45°C° 0 mm 3 mps 732 mmHg 23%
18:00 +44°C° 0 mm 3 mps 732 mmHg 27%
19:00 +42°C° 0 mm 3 mps 733 mmHg 31%
20:00 +39°C° 0 mm 3 mps 733 mmHg 36%
21:00 +40°C° 0 mm 4 mps 733 mmHg 41%
22:00 +38°C° 0 mm 4 mps 733 mmHg 46%
23:00 +37°C° 0 mm 5 mps 734 mmHg 51%

26 Junio, Sábado

Tiempo Temperatura Precipitaciones Viento Presión Humedad
00:00 +37°C° 0 mm 5 mps 734 mmHg 54%
01:00 +36°C° 0 mm 4 mps 734 mmHg 57%
02:00 +35°C° 0 mm 4 mps 734 mmHg 59%
03:00 +34°C° 0.1 mm 4 mps 734 mmHg 64%
04:00 +33°C° 0.1 mm 4 mps 734 mmHg 69%
05:00 +33°C° 0.1 mm 4 mps 735 mmHg 74%
06:00 +34°C° 0 mm 4 mps 735 mmHg 70%
07:00 +35°C° 0 mm 4 mps 736 mmHg 65%
08:00 +36°C° 0 mm 4 mps 736 mmHg 61%
09:00 +38°C° 0 mm 3 mps 736 mmHg 55%
10:00 +39°C° 0 mm 3 mps 736 mmHg 49%
11:00 +42°C° 0 mm 3 mps 736 mmHg 42%
12:00 +43°C° 0 mm 3 mps 735 mmHg 38%
13:00 +43°C° 0 mm 2 mps 735 mmHg 34%
14:00 +45°C° 0 mm 2 mps 734 mmHg 30%
15:00 +42°C° 1.5 mm 3 mps 734 mmHg 38%
16:00 +39°C° 1.5 mm 5 mps 734 mmHg 45%
17:00 +35°C° 1.5 mm 6 mps 734 mmHg 53%
18:00 +35°C° 0.2 mm 5 mps 734 mmHg 52%
19:00 +35°C° 0.2 mm 4 mps 734 mmHg 52%
20:00 +35°C° 0.2 mm 2 mps 735 mmHg 52%
21:00 +34°C° 0 mm 3 mps 735 mmHg 55%
22:00 +34°C° 0 mm 3 mps 736 mmHg 58%
23:00 +34°C° 0 mm 4 mps 736 mmHg 61%

27 Junio, Domingo

Tiempo Temperatura Precipitaciones Viento Presión Humedad
00:00 +34°C° 0.6 mm 3 mps 736 mmHg 66%
01:00 +33°C° 0.6 mm 3 mps 736 mmHg 70%
02:00 +31°C° 0.6 mm 3 mps 736 mmHg 75%
03:00 +31°C° 0.3 mm 3 mps 737 mmHg 77%
04:00 +30°C° 0.3 mm 4 mps 737 mmHg 79%
05:00 +30°C° 0.3 mm 4 mps 737 mmHg 82%
06:00 +32°C° 0 mm 4 mps 738 mmHg 75%
07:00 +34°C° 0 mm 5 mps 738 mmHg 69%
08:00 +35°C° 0 mm 5 mps 738 mmHg 63%
09:00 +37°C° 0 mm 5 mps 738 mmHg 57%
10:00 +38°C° 0 mm 4 mps 738 mmHg 51%
11:00 +41°C° 0 mm 4 mps 738 mmHg 44%
12:00 +40°C° 0 mm 3 mps 737 mmHg 41%
13:00 +42°C° 0 mm 3 mps 737 mmHg 38%
14:00 +42°C° 0 mm 2 mps 736 mmHg 35%
15:00 +42°C° 0 mm 3 mps 736 mmHg 37%
16:00 +42°C° 0 mm 4 mps 735 mmHg 39%
17:00 +41°C° 0 mm 5 mps 735 mmHg 41%
18:00 +40°C° 0 mm 4 mps 735 mmHg 44%
19:00 +38°C° 0 mm 3 mps 736 mmHg 48%
20:00 +37°C° 0 mm 2 mps 736 mmHg 52%
21:00 +36°C° 0 mm 3 mps 736 mmHg 53%
22:00 +36°C° 0 mm 3 mps 736 mmHg 55%
23:00 +35°C° 0 mm 3 mps 736 mmHg 57%
Mostrar más

Necesitamos Su Consentimiento

Meteoprog y nuestros Proveedores de Servicios pueden almacenar y acceder a sus datos personales como cookies, identificadores de dispositivo u otras tecnologías similares de su dispositivo y procesar dichos datos para personalizar contenido y anuncios, además de ofrecer funciones de redes sociales y analizar el tráfico.

  • Almacenar y/o acceder a información en su dispositivo

    Se puede almacenar o acceder a cookies, identificadores de dispositivo u otra información de su dispositivo para los fines anteriormente indicados.

  • Anuncios y contenido personalizados, medición de anuncios y contenido, percepciones del público, y desarrollo de productos

    Los anuncios y el contenido pueden personalizarse en base a su perfil. Se pueden añadir más datos para personalizar mejor los anuncios y contenidos. Se puede medir el rendimiento de los anuncios y contenidos. Se puede obtener la percepción sobre el público que ha visto los anuncios y contenidos. Dichos datos pueden usarse para desarrollar o mejorar la experiencia del usuario, sistemas y software.

Al hacer clic en ‘Estoy De Acuerdo’ usted permitirá el uso de las cookies, identificadores de dispositivo, balizas web u otras tecnologías similares indicadas. Su configuración puede cambiarse desde el navegador de su dispositivo.

Para ciertos fines, los intereses legítimos pueden ser considerados por encima del consentimiento. Puede leer más sobre ello en nuestra Política de Privacidad y Cookies.